Date String (YYYY-MM-DD hh:mm:ss) UTC,Instrument flags,Ambient pressure (hPa),Sample flow (lpm),Bypass flow (lpm),Sample temperature (°C),Ambient temperature (°C),ASC tube jacket temperature (°C),LED temperature (°C),Box temperature (°C),Sample RH (%),Span deviation,Mass concentration (μg/m³),Mass concentration (μg/m³),Mass concentration (μg/m³)
DateTimeUTC,F1_M11,P_M11,Q1_M11,Q2_M11,T1_M11,T2_M11,T3_M11,T4_M11,T5_M11,U1_M11,ZSPAN_M11,X0_M11,X2_M11,X1_M11
2022-08-10 22:00:00,,0832.4,5.00,0.00,29.4,28.2,00.0,38.1,31.4,19.5,0000.0,0013.45,0005.22,0004.09
2022-08-10 22:01:00,,0832.3,5.00,0.00,29.4,27.7,00.0,38.0,31.2,19.1,0000.0,0013.03,0005.20,0004.08
2022-08-10 22:02:00,,0832.3,5.00,0.00,29.3,27.3,00.0,38.0,31.1,19.8,0000.0,0012.60,0005.16,0004.07
2022-08-10 22:03:00,,0832.2,4.99,0.00,29.3,27.2,00.0,38.0,31.1,19.2,0000.0,0013.19,0005.11,0004.05
2022-08-10 22:04:00,,0832.2,5.00,0.00,29.3,27.3,00.0,38.0,31.0,19.7,0000.0,0013.25,0005.12,0004.07
2022-08-10 22:05:00,,0832.3,5.00,0.00,29.3,27.5,00.0,38.0,31.0,20.7,0000.0,0013.45,0005.13,0004.08
2022-08-10 22:06:00,,0832.3,4.99,0.00,29.3,27.7,00.0,38.0,31.1,22.0,0000.0,0013.76,0005.15,0004.11
2022-08-10 22:07:00,,0832.2,5.00,0.00,29.3,28.0,00.0,38.0,31.2,22.4,0000.0,0012.77,0005.18,0004.14
2022-08-10 22:08:00,,0832.2,5.00,0.00,29.4,28.2,00.0,38.1,31.3,22.1,0000.0,0012.38,0005.24,0004.16
2022-08-10 22:09:00,,0832.2,5.00,0.00,29.4,28.0,00.0,38.0,31.3,22.4,0000.0,0012.66,0005.28,0004.19
2022-08-10 22:10:00,,0832.3,4.99,0.00,29.4,27.4,00.0,38.0,31.2,22.0,0000.0,0012.86,0005.32,0004.21
2022-08-10 22:11:00,,0832.2,5.02,0.00,29.3,27.2,00.0,38.0,31.1,21.7,0000.0,0013.42,0005.36,0004.24
2022-08-10 22:12:00,,0832.2,4.99,0.00,29.3,27.2,00.0,38.0,31.1,21.9,0000.0,0014.89,0005.41,0004.26
2022-08-10 22:13:00,,0832.2,5.00,0.00,29.3,27.4,00.0,38.0,31.0,21.7,0000.0,0014.73,0005.44,0004.28
2022-08-10 22:14:00,,0832.2,5.01,0.00,29.3,27.6,00.0,38.0,31.1,22.2,0000.0,0014.85,0005.44,0004.28
2022-08-10 22:15:00,,0832.2,4.99,0.00,29.3,27.8,00.0,38.0,31.2,22.6,0000.0,0015.71,0005.46,0004.27
2022-08-10 22:16:00,,0832.2,4.98,0.00,29.3,28.0,00.0,38.0,31.3,20.3,0000.0,0015.89,0005.47,0004.26
2022-08-10 22:17:00,,0832.2,5.01,0.00,29.4,28.2,00.0,38.1,31.3,20.1,0000.0,0015.43,0005.45,0004.25
2022-08-10 22:18:00,,0832.2,5.01,0.00,29.4,27.8,00.0,38.0,31.2,20.2,0000.0,0015.38,0005.37,0004.21
2022-08-10 22:19:00,,0832.2,5.00,0.00,29.3,27.2,00.0,38.0,31.0,20.6,0000.0,0015.62,0005.29,0004.18
2022-08-10 22:20:00,,0832.2,4.99,0.00,29.3,27.1,00.0,38.0,31.1,20.7,0000.0,0015.27,0005.22,0004.15
2022-08-10 22:21:00,,0832.1,5.00,0.00,29.2,27.3,00.0,38.0,31.0,20.6,0000.0,0016.20,0005.19,0004.13
2022-08-10 22:22:00,,0832.1,5.01,0.00,29.2,27.5,00.0,38.0,31.1,20.7,0000.0,0016.17,0005.20,0004.10
2022-08-10 22:23:00,,0832.1,5.00,0.00,29.3,27.7,00.0,38.0,31.1,21.1,0000.0,0015.38,0005.15,0004.07
2022-08-10 22:24:00,,0832.2,5.00,0.00,29.3,27.9,00.0,38.0,31.2,20.8,0000.0,0015.19,0005.10,0004.04
2022-08-10 22:25:00,,0832.2,5.00,0.00,29.4,28.1,00.0,38.1,31.3,20.8,0000.0,0014.31,0005.08,0004.03
2022-08-10 22:26:00,,0832.2,4.99,0.00,29.4,28.3,00.0,38.1,31.4,20.3,0000.0,0013.36,0005.07,0004.03
2022-08-10 22:27:00,,0832.1,5.00,0.00,29.4,27.9,00.0,38.1,31.3,20.7,0000.0,0013.70,0005.05,0004.03
2022-08-10 22:28:00,,0832.2,5.00,0.00,29.4,27.3,00.0,38.0,31.1,21.0,0000.0,0013.88,0005.07,0004.03
2022-08-10 22:29:00,,0832.2,5.00,0.00,29.3,27.2,00.0,38.0,31.1,20.9,0000.0,0014.71,0005.11,0004.04
2022-08-10 22:30:00,,0832.1,5.01,0.00,29.3,27.3,00.0,38.0,31.1,21.3,0000.0,0014.50,0005.18,0004.06
2022-08-10 22:31:00,,0832.1,5.00,0.00,29.3,27.5,00.0,38.0,31.1,21.2,0000.0,0015.50,0005.23,0004.06
2022-08-10 22:32:00,,0832.2,5.00,0.00,29.3,27.8,00.0,38.0,31.2,21.3,0000.0,0015.68,0005.27,0004.06
2022-08-10 22:33:00,,0832.1,4.99,0.00,29.3,28.0,00.0,38.0,31.3,21.7,0000.0,0016.42,0005.24,0004.05
2022-08-10 22:34:00,,0832.1,5.00,0.00,29.4,28.1,00.0,38.1,31.3,22.0,0000.0,0015.98,0005.20,0004.05
2022-08-10 22:35:00,,0832.1,5.00,0.00,29.4,27.7,00.0,38.1,31.2,21.7,0000.0,0016.19,0005.20,0004.06
2022-08-10 22:36:00,,0832.1,5.00,0.00,29.3,27.2,00.0,38.0,31.0,21.6,0000.0,0016.36,0005.23,0004.06
2022-08-10 22:37:00,,0832.1,4.99,0.00,29.3,27.1,00.0,38.0,31.1,22.4,0000.0,0016.68,0005.23,0004.06
2022-08-10 22:38:00,,0832.0,5.02,0.00,29.3,27.3,00.0,38.0,31.1,22.7,0000.0,0016.74,0005.23,0004.06
2022-08-10 22:39:00,,0832.0,5.00,0.00,29.3,27.5,00.0,38.0,31.1,22.4,0000.0,0017.23,0005.23,0004.07
2022-08-10 22:40:00,,0832.1,4.99,0.00,29.3,27.7,00.0,38.0,31.1,22.6,0000.0,0017.13,0005.21,0004.06
2022-08-10 22:41:00,,0832.1,5.00,0.00,29.3,27.9,00.0,38.0,31.2,22.2,0000.0,0017.11,0005.15,0004.04
2022-08-10 22:42:00,,0832.0,5.00,0.00,29.4,28.1,00.0,38.0,31.3,22.9,0000.0,0016.55,0005.11,0004.03
2022-08-10 22:43:00,,0832.1,4.99,0.00,29.4,28.1,00.0,38.1,31.3,21.4,0000.0,0015.30,0005.07,0004.04
2022-08-10 22:44:00,,0832.1,4.99,0.00,29.4,27.5,00.0,38.0,31.1,21.2,0000.0,0014.30,0005.06,0004.05
2022-08-10 22:45:00,,0832.1,5.01,0.00,29.3,27.2,00.0,38.0,31.1,21.0,0000.0,0014.87,0005.12,0004.04
2022-08-10 22:46:00,,0832.1,4.99,0.00,29.3,27.2,00.0,38.0,31.1,21.0,0000.0,0014.93,0005.18,0004.04
2022-08-10 22:47:00,,0832.1,4.99,0.00,29.2,27.4,00.0,38.0,31.0,20.9,0000.0,0015.02,0005.18,0004.05
2022-08-10 22:48:00,,0832.0,5.00,0.00,29.3,27.6,00.0,38.0,31.1,20.9,0000.0,0014.79,0005.21,0004.06
2022-08-10 22:49:00,,0832.0,5.00,0.00,29.3,27.8,00.0,38.0,31.2,21.1,0000.0,0013.98,0005.26,0004.07
2022-08-10 22:50:00,,0832.0,5.01,0.00,29.3,28.0,00.0,38.0,31.3,20.4,0000.0,0013.45,0005.26,0004.07
2022-08-10 22:51:00,,0832.0,4.99,0.00,29.4,28.2,00.0,38.1,31.4,20.7,0000.0,0012.83,0005.31,0004.08
2022-08-10 22:52:00,,0832.0,5.01,0.00,29.4,27.9,00.0,38.1,31.3,20.5,0000.0,0013.75,0005.36,0004.10
2022-08-10 22:53:00,,0832.0,5.00,0.00,29.3,27.3,00.0,38.0,31.1,20.8,0000.0,0013.37,0005.40,0004.12
2022-08-10 22:54:00,,0832.0,5.00,0.00,29.3,27.2,00.0,38.0,31.1,20.8,0000.0,0013.72,0005.40,0004.13
2022-08-10 22:55:00,,0832.0,4.99,0.00,29.3,27.3,00.0,38.0,31.1,21.0,0000.0,0014.02,0005.44,0004.12
2022-08-10 22:56:00,,0832.0,5.00,0.00,29.3,27.5,00.0,38.0,31.0,21.2,0000.0,0013.18,0005.45,0004.12
2022-08-10 22:57:00,,0831.9,4.99,0.00,29.3,27.7,00.0,38.0,31.1,21.2,0000.0,0012.79,0005.43,0004.12
2022-08-10 22:58:00,,0832.0,5.00,0.00,29.3,27.9,00.0,38.0,31.2,21.4,0000.0,0012.75,0005.43,0004.12
2022-08-10 22:59:00,,0832.0,4.99,0.00,29.4,28.1,00.0,38.1,31.3,21.6,0000.0,0013.13,0005.40,0004.12
